Regional Weather Roundup
Issued by NWS

Home | Current Version | Previous Version | Text Only | Print | Product List | Glossary Off
Versions: 1 2 3 4 5 6 7 8 9 10 11 12 13 14 15 16 17 18 19 20 21 22 23 24 25 26 27

000
ASUS45 KSLC 170310
RWRUT

UTAH REGIONAL WEATHER ROUNDUP
NATIONAL WEATHER SERVICE SALT LAKE CITY UT
900 PM MDT WED APR 16 2014

UTZ001>011-023>025-170400-

NORTHERN UTAH

CITY           SKY/WX    TMP DP  RH WIND       PRES   REMARKS
HILL AFB       CLEAR     48  13  24 SE6       30.00R
LOGAN          CLEAR     45  26  47 CALM      29.99R
OGDEN          CLEAR     50  17  27 S6        29.99R
PROVO AIRPORT  PTCLDY    50  19  29 NW7       30.01R
SALT LAKE CITY PTCLDY    48  17  29 W7        30.00R
VERNAL         PTCLDY    46  19  34 NW5       29.96R
WENDOVER       CLEAR     54  18  24 CALM      29.98R
HEBER CITY     CLEAR     43  18  36 CALM      30.01R
WEST JORDAN    CLEAR     48  18  29 CALM      30.01R

$$

UTZ012>022-026-027-170400-

SOUTHERN UTAH

CITY           SKY/WX    TMP DP  RH WIND       PRES   REMARKS
BRYCE CANYON   CLEAR     42  21  43 NW9       30.04R
CEDAR CITY     CLEAR     50  22  33 NE9       29.96R
MILFORD        CLEAR     49  19  30 NE8       29.97R
MOAB/CYNLANDS  CLEAR     53  18  25 W5        29.91R
PRICE          CLEAR     49  17  28 NW13      29.98R
ST GEORGE      CLEAR     72  25  17 NE17      29.83R

$$

REGIONAL REPORTS     COLORADO/ARIZONA

CITY           SKY/WX    TMP DP  RH WIND       PRES   REMARKS
CRAIG, CO      PTCLDY    37  19  48 CALM      29.99R
GRAND JUNCTION CLEAR     48  21  34 VRB3      29.92R
RIFLE          CLEAR     47  16  29 W8        29.95R
MONTROSE       PTCLDY    47  26  44 S6        29.99R
CORTEZ         CLEAR     44  23  43 CALM      29.97R
PAGE, AZ       CLEAR     63  28  26 NE6       29.90R
GRAND CANYON   CLEAR     53  19  26 N6        29.99R
KINGMAN        CLEAR     68  12  11 CALM      29.82R
FLAGSTAFF      PTCLDY    53  12  19 NW3       30.01R

$$

REGIONAL REPORTS    NEVADA/IDAHO/WYOMING

CITY           SKY/WX    TMP DP  RH WIND       PRES   REMARKS
LAS VEGAS, NV  PTCLDY    81  18   9 SE7       29.69R
ELY            CLEAR     47  24  40 NW5       30.01R
ELKO           MOCLDY    52  28  39 S5        29.97S
POCATELLO, ID  CLEAR     47  13  25 S12       29.99R
BURLEY         CLEAR     45  18  34 W6        29.98R
EVANSTON, WY   CLEAR     37  14  38 W12       30.04R WCI  29
ROCK SPRINGS   CLEAR     41   8  25 NW12      30.00R

$$



USA.gov is the U.S. government's official web portal to all federal, state and local government web resources and services.